TimeCST,TemperatureF,Dew PointF,Humidity,Sea Level PressureIn,VisibilityMPH,Wind Direction,Wind SpeedMPH,Gust SpeedMPH,PrecipitationIn,Events,Conditions,WindDirDegrees,DateUTC
12:53 AM,46.0,37.0,71,29.55,10.0,SSE,19.6,26.5,N/A,,Clear,160,2012-12-03 06:53:00
1:53 AM,45.0,37.0,74,29.54,10.0,SSE,17.3,24.2,N/A,,Clear,160,2012-12-03 07:53:00
2:53 AM,45.0,37.9,76,29.51,10.0,South,19.6,-,N/A,,Clear,170,2012-12-03 08:53:00
3:53 AM,44.1,37.9,79,29.47,10.0,SSE,18.4,27.6,N/A,,Clear,160,2012-12-03 09:53:00
4:53 AM,42.1,37.9,85,29.46,8.0,South,17.3,-,N/A,,Clear,180,2012-12-03 10:53:00
5:53 AM,41.0,37.9,89,29.50,7.0,South,10.4,-,N/A,,Clear,180,2012-12-03 11:53:00
7:53 AM,43.0,36.0,76,29.55,10.0,West,15.0,-,N/A,,Clear,270,2012-12-03 13:53:00
9:53 AM,46.9,37.0,68,29.66,10.0,NW,20.7,32.2,N/A,,Scattered Clouds,320,2012-12-03 15:53:00
10:53 AM,44.1,39.0,82,29.71,10.0,WNW,15.0,-,0.01,,Overcast,300,2012-12-03 16:53:00
11:53 AM,46.0,39.0,76,29.72,10.0,WNW,10.4,-,N/A,,Mostly Cloudy,300,2012-12-03 17:53:00
12:53 PM,48.9,32.0,52,29.73,10.0,WNW,19.6,28.8,N/A,,Clear,300,2012-12-03 18:53:00
1:53 PM,51.1,30.0,44,29.74,10.0,WNW,18.4,24.2,N/A,,Clear,300,2012-12-03 19:53:00
2:53 PM,51.1,26.1,38,29.78,10.0,WNW,17.3,24.2,N/A,,Clear,300,2012-12-03 20:53:00
3:53 PM,48.9,25.0,39,29.81,10.0,WNW,16.1,-,N/A,,Clear,290,2012-12-03 21:53:00
4:53 PM,45.0,24.1,44,29.86,10.0,West,11.5,-,N/A,,Clear,280,2012-12-03 22:53:00
5:53 PM,36.0,23.0,59,29.90,10.0,WSW,9.2,-,N/A,,Clear,240,2012-12-03 23:53:00
6:53 PM,35.1,21.9,59,29.93,10.0,WSW,9.2,-,N/A,,Clear,240,2012-12-04 00:53:00
7:53 PM,30.9,21.9,69,29.95,10.0,SW,9.2,-,N/A,,Clear,230,2012-12-04 01:53:00
8:53 PM,30.9,21.9,69,29.96,10.0,SW,8.1,-,N/A,,Clear,220,2012-12-04 02:53:00
9:53 PM,34.0,21.9,61,29.97,10.0,SW,12.7,-,N/A,,Clear,220,2012-12-04 03:53:00
10:53 PM,33.1,21.0,61,30.00,10.0,SW,10.4,-,N/A,,Clear,230,2012-12-04 04:53:00
11:53 PM,30.9,21.0,67,30.02,10.0,WSW,9.2,-,N/A,,Clear,240,2012-12-04 05:53:00